Wind_Speed
27 25 25 25 25 26 25 27 28 28 28 28 29 30 31 32 34 36 37 38 40 40 41 42 43 45 46 47 47 46 46 44 45 45 44 43 43 43 44 43 42 42 41 41
26 25 24 24 25 25 25 26 27 28 27 27 28 30 29 29 32 34 36 37 39 40 41 41 42 43 45 47 48 47 46 45 45 45 45 44 43 44 44 44 43 43 43 43
26 25 24 23 24 24 25 25 25 26 27 27 28 29 27 27 29 31 34 36 38 38 40 41 42 43 44 45 47 47 47 47 46 45 45 45 45 45 44 44 44 44 44 43
25 24 23 23 23 23 24 24 25 25 25 25 25 27 26 25 26 28 31 33 35 37 38 39 42 43 44 44 45 46 46 47 47 47 47 46 46 46 45 46 45 45 45 45
26 24 22 22 22 22 23 23 23 24 24 25 25 25 25 25 25 25 28 31 33 36 38 39 41 42 43 44 44 46 47 46 47 47 46 47 47 47 47 47 47 46 46 46
25 24 22 22 21 21 21 22 22 22 24 25 24 24 25 24 24 25 26 28 30 34 37 39 41 42 43 43 43 45 45 46 47 47 47 47 47 47 47 47 48 48 47 46
24 24 23 22 21 20 21 21 21 20 21 24 24 24 23 22 22 23 24 25 27 31 34 38 40 41 42 43 44 45 45 46 47 48 48 48 48 48 47 47 47 48 48 48
23 23 23 22 21 21 20 20 20 21 21 22 23 22 21 22 22 22 23 25 26 29 32 35 38 40 41 42 44 44 45 47 48 48 48 48 49 49 48 48 48 48 48 48
24 23 23 22 21 20 20 20 20 21 22 22 22 21 20 20 21 21 22 23 25 28 31 32 34 38 40 41 43 45 46 47 49 49 50 48 47 48 49 48 48 49 49 49
24 24 23 22 21 20 20 20 20 20 21 21 22 21 21 20 19 20 21 22 24 26 29 31 32 35 38 39 41 42 44 46 48 48 48 47 46 46 47 47 48 48 49 50
24 24 23 22 21 20 20 20 20 20 21 22 22 21 21 22 22 23 23 23 25 27 28 29 31 33 35 37 39 41 43 44 45 45 46 47 46 46 48 48 48 49 50 51
25 24 24 23 22 21 21 21 20 20 20 21 22 22 21 22 22 22 24 24 24 26 27 27 29 32 35 37 38 39 43 43 44 44 43 44 45 45 45 46 47 47 48 49
24 24 24 23 23 22 22 21 21 22 21 21 21 22 21 22 22 22 23 23 23 24 26 27 28 31 34 36 37 39 42 44 44 44 44 44 43 44 45 46 46 45 47 48
24 24 24 24 24 23 22 21 21 22 22 22 21 21 22 22 23 23 23 24 25 25 26 27 28 29 32 34 36 37 38 40 43 44 45 45 45 45 46 46 46 46 46 46
24 24 24 24 24 24 23 21 21 21 22 22 21 21 21 21 22 22 22 23 25 26 27 27 27 27 30 32 34 37 38 40 41 43 44 45 46 45 44 45 46 45 46 46
25 25 25 25 25 24 23 22 22 22 23 23 23 22 21 21 22 22 22 23 25 26 27 28 28 28 29 31 33 35 38 39 41 42 43 44 45 45 45 45 45 45 46 46
26 27 27 27 26 25 24 22 22 22 23 23 23 23 23 23 22 22 23 24 25 26 27 29 29 29 30 31 32 34 38 40 41 41 41 42 44 45 46 47 46 47 47 47
27 28 28 27 27 26 24 24 24 24 24 23 23 23 24 25 24 24 24 25 26 27 28 29 30 30 31 32 33 34 35 38 39 41 42 42 43 43 45 46 46 46 48 48
27 28 28 28 27 27 25 25 25 25 23 23 23 23 24 25 25 25 26 26 26 26 27 29 30 30 31 32 33 35 35 36 37 38 40 41 42 43 44 45 46 46 46 47
27 27 28 28 28 28 27 27 26 26 24 24 24 24 24 24 24 24 26 26 27 27 28 29 30 31 31 31 32 33 35 36 36 36 37 39 41 41 42 42 43 44 45 46
28 28 28 28 28 28 27 27 25 24 24 25 25 25 25 25 26 25 25 26 27 28 29 29 30 31 31 31 31 32 33 34 36 36 36 37 38 39 39 39 40 42 43 44
29 30 29 29 29 29 28 26 25 24 25 25 26 26 26 26 27 26 26 26 27 27 27 27 28 30 31 30 30 31 32 33 34 36 37 36 37 37 37 37 38 40 41 41
30 30 30 29 29 29 28 26 26 26 26 26 27 27 27 27 27 26 26 26 26 26 25 26 26 27 29 29 29 30 31 31 32 34 34 35 36 36 36 37 36 37 38 39
30 30 30 29 28 28 28 27 27 27 27 27 27 27 27 27 27 26 25 24 25 25 25 25 25 26 26 27 27 28 29 29 30 31 33 34 35 35 36 36 37 37 37 37
31 31 30 29 29 28 28 27 27 27 27 27 27 27 27 26 25 25 24 24 24 25 24 24 24 24 24 25 25 26 27 27 28 29 31 32 33 34 35 36 37 37 37 37
31 30 30 30 30 29 29 28 28 28 27 27 26 26 26 25 24 25 24 24 24 24 23 23 23 23 23 23 24 25 25 26 26 28 29 30 31 32 34 34 35 35 35 36
Wind_Direction
307 302 300 294 289 286 283 280 278 274 271 270 270 267 264 262 258 255 253 250 247 244 240 236 236 234 233 232 232 233 233 234 236 237 236 236 236 238 239 240 241 241 241 241
307 302 300 297 292 288 287 284 280 276 274 272 272 268 266 265 261 258 254 251 248 243 238 234 234 233 233 232 232 232 234 234 236 238 237 237 237 238 239 241 242 242 243 243
311 306 303 301 297 291 288 285 281 279 275 274 274 271 268 267 264 261 257 253 247 242 238 235 234 233 232 233 233 233 234 235 235 237 239 238 238 238 239 241 241 242 243 244
317 311 306 303 300 294 289 285 282 280 279 277 275 275 268 268 266 262 257 252 246 242 239 236 234 233 232 233 233 233 235 236 236 237 239 240 239 239 240 241 243 243 244 245
319 315 308 305 305 299 295 290 284 280 279 279 277 278 271 267 265 262 258 253 247 242 239 236 234 233 233 234 235 234 234 235 236 237 239 241 241 241 241 242 242 244 245 245
319 318 313 309 307 303 302 297 290 285 280 280 278 279 277 272 266 262 258 253 247 242 239 236 234 233 234 236 236 235 234 235 237 238 239 240 241 242 243 243 242 243 245 245
321 321 318 313 309 306 304 302 298 294 288 283 280 279 278 274 267 264 260 253 249 244 240 237 236 236 236 237 237 236 236 237 237 238 239 240 241 242 243 244 244 245 246 246
320 320 319 315 312 310 308 304 299 294 289 287 283 279 277 275 270 268 262 256 252 246 242 240 239 238 238 238 237 236 238 238 238 238 239 240 241 242 243 245 245 247 246 246
322 320 319 316 313 311 308 305 302 296 293 289 287 282 279 275 271 268 267 263 256 250 247 244 242 240 240 239 237 238 240 240 240 240 241 241 242 244 245 246 247 246 246 247
322 320 319 315 313 310 307 307 308 303 298 295 291 285 282 277 274 270 268 264 259 254 250 250 247 244 242 242 240 240 241 241 241 241 241 241 242 244 245 247 248 248 248 248
323 322 320 316 314 310 305 304 306 304 299 295 293 290 284 280 277 274 270 266 263 259 257 254 251 246 243 243 243 243 242 243 242 242 242 243 244 246 246 248 249 249 249 249
322 321 320 319 316 312 308 305 304 302 301 294 292 290 288 285 281 275 271 268 266 263 262 259 255 249 246 245 244 244 243 243 243 242 243 245 246 247 248 249 250 250 250 250
322 321 321 321 318 315 311 306 302 300 299 296 293 292 288 285 281 277 272 269 268 264 261 261 259 255 252 250 247 245 245 244 244 244 244 245 247 248 249 250 250 250 251 249
320 320 320 319 318 315 311 308 302 299 297 296 294 291 289 286 283 281 275 270 269 265 262 262 261 259 257 254 252 248 247 246 246 247 247 246 248 249 250 250 251 252 251 250
321 321 321 319 316 312 309 305 302 299 296 294 295 296 292 288 286 282 277 272 271 269 266 264 264 261 259 257 254 251 249 248 248 249 249 248 248 249 250 251 252 252 252 250
320 319 320 318 316 311 308 305 302 300 297 295 294 295 294 290 287 282 278 274 273 272 270 267 265 264 263 260 256 254 250 249 249 249 250 250 249 249 250 251 252 252 251 251
320 319 318 317 315 310 308 305 302 301 298 296 293 293 293 292 289 284 281 277 274 273 271 270 267 266 266 263 260 256 253 251 251 251 250 250 251 251 251 252 253 253 253 253
318 318 317 317 315 311 308 304 302 299 297 295 292 291 291 292 290 287 285 283 279 276 273 272 270 268 268 266 264 260 256 253 252 252 252 252 252 251 251 252 253 254 253 252
316 316 316 317 315 312 308 305 302 301 298 295 294 291 291 291 290 288 288 286 284 281 277 274 272 270 269 268 266 263 260 257 254 253 253 254 253 253 253 253 253 253 253 252
316 316 315 314 313 311 312 308 303 300 298 296 295 295 293 293 293 291 289 287 286 283 279 276 274 273 271 270 268 264 260 258 257 256 256 255 255 255 254 254 254 253 253 253
314 314 314 312 310 310 311 309 306 301 298 297 297 296 295 293 294 294 292 290 288 287 283 278 276 274 272 270 268 264 261 260 259 259 258 257 256 255 255 255 254 253 253 253
311 312 313 311 311 311 310 308 304 302 298 297 297 297 296 295 294 293 293 292 291 289 287 283 278 276 273 270 268 265 263 261 260 259 258 258 256 255 254 253 253 253 253 252
309 310 310 310 310 309 308 306 303 301 300 299 299 298 297 295 294 292 292 292 291 290 289 288 283 278 275 271 268 266 265 264 262 260 258 257 256 255 255 255 254 253 252 252
309 309 307 308 309 308 306 305 303 301 300 300 300 300 299 297 294 293 293 292 290 289 289 287 285 281 278 274 269 267 266 264 263 261 259 257 256 256 256 255 255 255 255 254
308 308 306 306 307 306 306 305 303 302 300 299 299 300 299 298 297 296 295 294 293 291 288 286 285 283 281 277 272 269 266 264 263 261 260 258 257 257 257 256 255 255 255 254
307 307 306 306 306 305 305 304 302 301 300 299 298 298 298 298 297 298 297 296 294 291 288 286 285 284 282 278 274 271 269 266 264 262 262 260 259 258 257 256 254 253 253 253
Height
5687 5684 5680 5677 5674 5673 5670 5668 5667 5665 5664 5663 5661 5661 5661 5661 5661 5662 5664 5665 5668 5671 5674 5678 5682 5687 5693 5698 5702 5708 5713 5717 5721 5725 5729 5734 5738 5741 5744 5748 5751 5754 5757 5760
5682 5677 5674 5670 5668 5665 5663 5661 5659 5657 5655 5654 5653 5652 5652 5652 5652 5652 5654 5655 5657 5660 5663 5668 5672 5677 5682 5687 5692 5697 5702 5707 5711 5715 5720 5724 5728 5731 5735 5738 5741 5744 5747 5750
5675 5671 5667 5664 5661 5659 5656 5654 5652 5650 5648 5646 5645 5644 5644 5643 5643 5643 5644 5645 5647 5650 5654 5658 5663 5667 5671 5676 5681 5686 5692 5696 5701 5705 5709 5713 5717 5721 5724 5728 5731 5734 5737 5740
5669 5665 5661 5658 5655 5652 5650 5648 5645 5643 5641 5639 5638 5636 5637 5636 5635 5635 5635 5636 5638 5641 5645 5649 5653 5657 5662 5667 5671 5676 5681 5685 5690 5695 5699 5703 5707 5711 5715 5718 5721 5723 5727 5730
5664 5660 5656 5653 5650 5646 5644 5641 5639 5637 5634 5633 5631 5629 5630 5629 5628 5628 5627 5628 5630 5632 5635 5639 5643 5648 5652 5657 5660 5665 5670 5674 5679 5684 5688 5693 5697 5700 5704 5707 5711 5713 5716 5719
5659 5655 5651 5648 5644 5641 5638 5636 5633 5630 5628 5626 5625 5623 5622 5622 5621 5621 5620 5620 5621 5623 5626 5630 5634 5638 5642 5646 5649 5654 5659 5664 5669 5673 5678 5682 5686 5689 5693 5696 5700 5703 5705 5709
5655 5651 5646 5643 5640 5637 5634 5631 5627 5623 5621 5620 5619 5616 5617 5616 5615 5614 5614 5614 5614 5616 5618 5621 5625 5628 5632 5636 5640 5644 5649 5654 5658 5662 5667 5671 5674 5678 5681 5685 5688 5691 5695 5698
5650 5647 5642 5638 5635 5631 5628 5625 5622 5618 5616 5614 5612 5611 5612 5610 5609 5608 5608 5608 5608 5609 5611 5613 5616 5619 5623 5627 5631 5634 5638 5643 5647 5652 5656 5660 5663 5667 5670 5674 5678 5680 5683 5686
5645 5642 5638 5633 5630 5627 5623 5620 5617 5614 5610 5608 5606 5606 5606 5604 5603 5602 5602 5602 5602 5603 5604 5606 5608 5611 5614 5617 5621 5624 5628 5632 5636 5640 5644 5648 5652 5656 5660 5663 5666 5669 5672 5674
5640 5637 5633 5629 5625 5622 5618 5615 5612 5609 5605 5603 5602 5601 5600 5599 5598 5597 5597 5596 5596 5597 5597 5598 5600 5602 5605 5608 5611 5614 5618 5621 5625 5629 5633 5637 5641 5645 5648 5651 5654 5657 5660 5663
5635 5632 5629 5624 5620 5617 5614 5611 5607 5604 5601 5599 5596 5598 5595 5594 5592 5592 5591 5591 5590 5590 5591 5591 5592 5594 5596 5599 5602 5604 5608 5611 5615 5618 5622 5626 5630 5633 5637 5639 5642 5645 5648 5651
5631 5627 5623 5620 5616 5612 5609 5606 5603 5601 5597 5594 5592 5594 5590 5588 5587 5586 5585 5585 5584 5584 5584 5584 5585 5586 5588 5590 5593 5595 5598 5602 5605 5608 5612 5616 5619 5622 5625 5627 5630 5632 5635 5638
5626 5622 5618 5615 5613 5609 5604 5601 5598 5596 5593 5590 5588 5590 5585 5583 5581 5579 5579 5578 5578 5577 5577 5577 5578 5578 5580 5582 5584 5586 5589 5592 5595 5598 5602 5605 5608 5611 5613 5616 5618 5620 5622 5625
5621 5618 5615 5611 5607 5603 5599 5597 5593 5590 5588 5585 5584 5582 5580 5577 5575 5574 5572 5571 5571 5570 5570 5570 5570 5570 5571 5572 5574 5576 5579 5582 5585 5588 5591 5594 5596 5599 5602 5604 5606 5608 5610 5613
5617 5613 5610 5606 5602 5598 5595 5592 5588 5585 5583 5581 5579 5576 5574 5571 5569 5567 5566 5565 5564 5563 5563 5562 5562 5562 5563 5564 5565 5567 5569 5572 5574 5577 5579 5582 5584 5587 5589 5591 5593 5596 5598 5600
5612 5608 5604 5601 5597 5593 5590 5587 5583 5580 5577 5575 5573 5571 5568 5566 5563 5561 5560 5558 5557 5556 5555 5555 5555 5554 5554 5555 5556 5557 5559 5561 5563 5565 5568 5570 5572 5574 5577 5578 5580 5582 5585 5587
5606 5602 5599 5595 5591 5587 5584 5582 5578 5575 5572 5569 5567 5565 5562 5560 5557 5555 5554 5552 5550 5549 5548 5547 5546 5546 5546 5546 5546 5547 5548 5550 5552 5554 5556 5558 5560 5562 5564 5566 5568 5569 5571 5573
5601 5597 5592 5589 5586 5581 5581 5575 5572 5568 5566 5563 5560 5558 5555 5553 5551 5548 5546 5545 5543 5541 5540 5539 5538 5538 5537 5537 5537 5537 5538 5539 5541 5542 5544 5546 5548 5550 5552 5553 5555 5556 5558 5560
5595 5591 5586 5582 5578 5575 5573 5569 5565 5561 5559 5557 5554 5551 5548 5546 5544 5542 5539 5537 5535 5533 5532 5531 5529 5529 5528 5528 5527 5527 5527 5529 5530 5532 5533 5535 5537 5538 5539 5541 5542 5543 5545 5547
5589 5584 5581 5575 5571 5568 5567 5562 5558 5555 5553 5550 5547 5544 5541 5538 5537 5535 5532 5529 5527 5525 5523 5522 5521 5519 5518 5518 5517 5517 5517 5518 5520 5521 5522 5524 5525 5526 5527 5528 5530 5531 5533 5535
5582 5578 5574 5569 5564 5561 5559 5555 5551 5549 5547 5542 5539 5536 5534 5531 5529 5527 5524 5521 5519 5517 5514 5513 5511 5510 5509 5508 5507 5507 5507 5508 5509 5510 5511 5512 5513 5515 5516 5517 5518 5519 5521 5523
5575 5571 5567 5562 5558 5557 5551 5547 5545 5542 5538 5535 5532 5529 5527 5524 5521 5519 5516 5513 5510 5508 5505 5503 5502 5500 5499 5498 5497 5497 5498 5498 5499 5500 5501 5502 5503 5504 5505 5506 5507 5508 5510 5512
5568 5564 5559 5556 5554 5548 5544 5540 5537 5534 5531 5528 5525 5522 5519 5516 5514 5511 5508 5505 5502 5500 5497 5495 5493 5491 5490 5489 5488 5488 5488 5488 5488 5489 5490 5491 5492 5493 5494 5495 5496 5497 5499 5500
5561 5556 5552 5548 5545 5541 5536 5532 5529 5526 5523 5520 5517 5514 5511 5508 5506 5503 5500 5497 5495 5492 5489 5487 5485 5483 5481 5479 5479 5478 5478 5478 5479 5479 5480 5480 5481 5482 5483 5484 5485 5487 5488 5490
5552 5548 5544 5540 5537 5533 5529 5525 5522 5518 5515 5512 5509 5506 5504 5501 5498 5495 5492 5490 5487 5484 5481 5479 5477 5474 5473 5471 5470 5470 5469 5469 5469 5470 5470 5470 5471 5472 5473 5474 5476 5477 5479 5480
5544 5540 5536 5533 5529 5525 5522 5518 5514 5511 5508 5504 5502 5499 5496 5493 5490 5487 5485 5482 5479 5477 5474 5471 5469 5467 5465 5463 5462 5461 5461 5461 5461 5461 5461 5461 5461 5462 5463 5465 5466 5467 5469 5470